Location: Krakow
(50.0830°N, 19.9170°E)
Time: 19:50:58
(UTC+01:00)

Altair - Pass Details

Date: 03 December 2023
Orbit: 1501 x 1682 km, 47.2° (Epoch: 03 March)

Event Time Altitude Azimuth Distance (km) Brightness Sun altitude
Rises 08:57:19 0° 232° (SW) 4,808 10.1 10.3°
Reaches altitude 10° 09:00:32 10° 228° (SW) 3,799 9.7 10.6°
Maximum altitude 09:09:47 55° 154° (SSE) 1,809 8.8 11.4°
Drops below altitude 10° 09:18:44 10° 80° (E) 3,684 9.8 12.2°
Sets 09:21:48 0° 77° (ENE) 4,654 10.3 12.5°
